FW3145 Weather Reports


time (UTC)temp
C
wind
direction
speed
KPH
gust
KPH
rain 1hr
cm
rain 24hr
cm
rain mn
cm
humidity
%
barometer
mb
20260906073026 25 172 0.0 0.0 0.00 0.00 0.00 73 1018.2
20260906071517 23 183 0.0 0.0 0.00 0.00 0.00 75 1018.1
20260906070013 23 126 0.0 0.0 0.00 0.00 0.00 76 1018.0
20260906064511 23 117 0.0 0.0 0.00 0.00 0.00 77 1018.1
20260906063004 22 108 0.0 0.0 0.00 0.00 0.00 78 1018.1
20260906061600 22 108 0.0 0.0 0.00 0.00 0.00 78 1018.0
20260906054551 19 108 0.0 0.0 0.00 0.00 0.00 80 1017.7
20260906053046 18 336 0.0 0.0 0.00 0.00 0.00 80 1017.5
20260906051545 17 336 0.0 0.0 0.00 0.00 0.00 81 1017.5
20260906050043 17 336 0.0 0.0 0.00 0.00 0.00 81 1017.5
20260906044538 17 336 0.0 0.0 0.00 0.00 0.00 81 1017.5
20260906043037 17 344 0.0 0.0 0.00 0.00 0.00 81 1017.3
20260906041542 17 344 0.0 0.0 0.00 0.00 0.00 81 1017.2
20260906040043 18 344 0.0 0.0 0.00 0.00 0.00 81 1017.1
20260906034535 18 344 0.0 0.0 0.00 0.00 0.00 81 1017.0
20260906033033 18 344 0.0 0.0 0.00 0.00 0.00 81 1017.0
20260906031532 18 344 0.0 0.0 0.00 0.00 0.00 81 1017.1
20260906030031 18 344 0.0 0.0 0.00 0.00 0.00 80 1017.1
20260906024531 18 344 0.0 0.0 0.00 0.00 0.00 81 1017.2
20260906023032 18 344 0.0 0.0 0.00 0.00 0.00 80 1017.3
20260906021527 18 344 0.0 0.0 0.00 0.00 0.00 80 1017.2
20260906020024 18 344 0.0 0.0 0.00 0.00 0.00 80 1017.0
20260906014532 18 344 0.0 0.0 0.00 0.00 0.00 80 1017.1
20260906013020 19 343 0.0 0.0 0.00 0.00 0.00 80 1017.1
20260906011519 20 343 0.0 0.0 0.00 0.00 0.00 80 1017.1
20260906010017 20 344 0.0 0.0 0.00 0.00 0.00 79 1017.1
20260906004517 20 346 0.0 0.0 0.00 0.00 0.00 79 1017.2
20260906003016 20 345 0.0 0.0 0.00 0.00 0.00 78 1017.2
20260906001515 20 345 0.0 0.0 0.00 0.00 0.00 78 1017.3
20260906000015 20 345 0.0 0.0 0.00 0.00 0.00 77 1017.1
20260905234514 20 345 0.0 0.0 0.00 0.00 0.00 77 1017.2
20260905233013 20 345 0.0 0.0 0.00 0.00 0.00 75 1017.2
20260905231512 20 343 0.0 0.0 0.00 0.00 0.00 74 1017.2
20260905230011 20 342 0.0 0.0 0.00 0.00 0.00 72 1017.1
20260905224516 20 341 0.0 0.0 0.00 0.00 0.00 73 1017.2
20260905223008 21 342 0.0 0.0 0.00 0.00 0.00 73 1017.2
20260905221512 21 341 0.0 0.0 0.00 0.00 0.00 74 1017.1
20260905220002 21 339 0.0 0.0 0.00 0.00 0.00 74 1017.1
20260905214501 22 340 0.0 0.0 0.00 0.00 0.00 73 1017.1
20260905213001 22 339 0.0 0.0 0.00 0.00 0.00 71 1017.1
20260905211600 22 349 0.0 0.0 0.00 0.00 0.00 69 1017.1
20260905210059 22 355 0.0 0.0 0.00 0.00 0.00 67 1017.0
20260905204559 22 360 0.0 0.0 0.00 0.00 0.00 65 1017.0
20260905203101 22 5 0.0 0.0 0.00 0.00 0.00 63 1017.1
20260905201608 22 9 0.0 0.0 0.00 0.00 0.00 60 1017.1
20260905194557 23 5 0.0 0.0 0.00 0.00 0.00 59 1016.9
20260905193057 23 360 0.0 0.0 0.00 0.00 0.00 56 1016.9
20260905191557 24 355 0.0 0.0 0.00 0.00 0.00 55 1016.8
20260905190115 25 15 0.0 0.0 0.00 0.00 0.00 54 1016.7
20260905184611 25 55 0.0 0.0 0.00 0.00 0.00 53 1016.5
20260905183055 25 49 0.0 0.0 0.00 0.00 0.00 57 1016.5
20260905181553 25 49 0.0 0.0 0.00 0.00 0.00 55 1016.4
20260905180055 26 74 0.0 0.0 0.00 0.00 0.00 52 1016.2
20260905174557 26 77 0.0 0.0 0.00 0.00 0.00 51 1015.9
20260905173052 27 257 0.0 0.0 0.00 0.00 0.00 51 1015.7
20260905171552 28 257 0.0 0.0 0.00 0.00 0.00 48 1015.6
20260905170055 29 266 0.0 0.0 0.00 0.00 0.00 43 1015.6
20260905164551 30 277 0.0 0.0 0.00 0.00 0.00 49 1015.6
20260905163050 30 287 0.0 0.0 0.00 0.00 0.00 47 1015.4
20260905161552 31 270 0.0 0.0 0.00 0.00 0.00 48 1015.4
20260905160049 31 284 0.0 0.0 0.00 0.00 0.00 47 1015.4
20260905154552 31 269 0.0 0.0 0.00 0.00 0.00 44 1015.4
20260905153047 32 257 0.0 0.0 0.00 0.00 0.00 41 1015.4
20260905151547 33 281 0.0 0.0 0.00 0.00 0.00 38 1015.5
20260905150046 33 259 0.0 0.0 0.00 0.00 0.00 34 1015.5
20260905144546 33 235 0.0 0.0 0.00 0.00 0.00 32 1015.4
20260905143045 34 284 0.0 0.0 0.00 0.00 0.00 32 1015.4
20260905141547 34 281 0.0 0.0 0.00 0.00 0.00 32 1015.4
20260905140046 34 251 0.0 0.0 0.00 0.00 0.00 32 1015.4
20260905134542 34 266 0.0 0.0 0.00 0.00 0.00 33 1015.5
20260905133040 34 238 0.0 0.0 0.00 0.00 0.00 34 1015.5
20260905131556 34 257 0.0 0.0 0.00 0.00 0.00 37 1015.6
20260905130040 34 176 0.0 0.0 0.00 0.00 0.00 37 1015.6
20260905124546 34 265 0.0 0.0 0.00 0.00 0.00 39 1015.7
20260905123044 34 164 0.0 0.0 0.00 0.00 0.00 40 1015.8
20260905121534 33 162 0.0 0.0 0.00 0.00 0.00 41 1016.1
20260905120130 33 171 0.0 0.0 0.00 0.00 0.00 41 1016.2
20260905114538 33 180 0.0 0.0 0.00 0.00 0.00 43 1016.3
20260905113024 32 175 0.0 0.0 0.00 0.00 0.00 45 1016.4
20260905111527 32 153 0.0 0.0 0.00 0.00 0.00 44 1016.5
20260905110020 32 182 0.0 0.0 0.00 0.00 0.00 46 1016.5
20260905104518 31 153 0.0 0.0 0.00 0.00 0.00 45 1016.6
20260905103027 31 179 0.0 0.0 0.00 0.00 0.00 45 1016.7
20260905101524 31 136 0.0 0.0 0.00 0.00 0.00 45 1016.8
20260905100013 31 289 0.0 0.0 0.00 0.00 0.00 45 1017.0
20260905094506 30 147 0.0 0.0 0.00 0.00 0.00 47 1017.2
20260905093002 30 150 0.0 0.0 0.00 0.00 0.00 45 1017.3
20260905091616 29 170 0.0 0.0 0.00 0.00 0.00 50 1017.4
20260905090054 28 119 0.0 0.0 0.00 0.00 0.00 49 1017.4
20260905084604 27 196 0.0 0.0 0.00 0.00 0.00 51 1017.3
20260905083046 27 160 0.0 0.0 0.00 0.00 0.00 53 1017.1
20260905081541 26 163 0.0 0.0 0.00 0.00 0.00 56 1017.0
20260905080037 26 163 0.0 0.0 0.00 0.00 0.00 56 1016.9
20260905074533 25 148 0.0 0.0 0.00 0.00 0.00 59 1016.9